Location: Unspecified
(0.0000°N, 0.0000°E)
Time: 00:03:59
(UTC+00:00)

XW-2D - Visible Passes

Search period start: 16 January 2021 00:00
Search period end: 26 January 2021 00:00
Orbit: 506 x 525 km, 97.5° (Epoch: 15 January)

Date Brightness Start Highest point End Pass type
(mag) Time Alt. Az. Time Alt. Az. Time Alt. Az.
18 Jan ? 05:33:26 10° NNE 05:37:15 89° E 05:41:04 10° S visible
19 Jan ? 05:18:48 10° NNE 05:22:29 48° ESE 05:26:10 10° S visible
20 Jan ? 05:04:25 10° NE 05:07:42 28° E 05:11:00 10° SSE visible
21 Jan ? 04:50:28 10° ENE 04:52:57 17° ESE 04:55:25 10° SE visible
24 Jan ? 05:38:37 10° N 05:42:24 75° W 05:46:12 10° SSW visible
25 Jan ? 05:23:53 10° NNE 05:27:37 60° E 05:31:23 10° S visible
